TIMESTAMP,CO2_1_1_1,H2O_1_1_1,TAU_1_1_1,TAU_SSITC_TEST_1_1_1,H_1_1_1,H_SSITC_TEST_1_1_1,LE_1_1_1,LE_SSITC_TEST_1_1_1,FC_1_1_1,FC_SSITC_TEST_1_1_1,WD_0_0_1,WS_0_0_1,WS_MAX_0_0_1,U_SIGMA_0_0_1,V_SIGMA_0_0_1,W_SIGMA_0_0_1,USTAR_0_0_1,MO_LENGTH_0_0_1,ZL_0_0_1,FETCH_MAX_0_0_1,FETCH_70_0_0_1,FETCH_80_0_0_1,FETCH_90_0_0_1,PA_0_0_1,RH_0_0_1,TA_0_0_1,VPD_0_0_1,T_SONIC_0_0_1,T_SONIC_SIGMA_0_0_1
[yyyymmddHHMMSS],[mmolCO2 mol-1],[mmolH2O mol-1],[kg m-1 s-2],[#],[W m-2],[#],[W m-2],[#],[umolCO2 m-2 s-1],[#],[Decimal degrees],[m s-1],[m s-1],[m s-1],[m s-1],[m s-1],[m s-1],[m],[#],[m],[m],[m],[m],[kPa],[%],[deg C],[hPa],[deg C],[deg C]
20220210003000,425.03717768463355,3.3503911721449904,0.96834551873271379,0,-3.2351841730339577,2,1.9634325600816105,1,0.56021545010170459,0,282.66265939416445,4.2619699889974108,10.721977487215227,1.6937357413709169,1.4144665949529083,1.0812060815957565,0.89491889170368211,18267.170530142928,1.0401172950483940E-003,107.63538208391678,196.79180699381328,235.50953164277445,294.82998703907981,92.608517183461075,83.700000000000003,-6.6513793103448506,0.60440085753980211,-7.0990066656402178,7.1495299844880844E-002
20220210010000,424.93667045638352,3.3478929321835609,0.53042844445429471,0,-1.5358219950768206,1,0.59793943084303558,2,0.16667483270840855,1,276.41571639166216,3.8861228009716644,8.8265835137390525,1.6076838949065089,1.3429606897174047,0.91353118622312668,0.66200587569156721,15581.789787734378,1.2193721169923854E-003,96.775555464081123,176.93658036869863,211.74789646815103,265.08323945865550,92.654572485894093,84.566666666666663,-6.7886666666666429,0.56625939437624428,-7.2370413767496302,4.7431166737942343E-002
20220210013000,424.82343743084363,3.3478980910489913,1.0458636625957125,0,-0.48459810072487219,2,4.7887355824826754,1,0.47872107362796640,0,276.91442157912701,4.1030255675982863,10.807151754199923,1.8596936286375876,1.4183770150328829,1.0800119631039380,0.92924375663515324,136610.96082455741,1.3908108020996019E-004,111.02371834790178,202.98676633880277,242.92331576403296,304.11116500726774,92.686257309895836,85.253333333333330,-6.8893333333333544,0.53689152637776316,-7.3398010639614313,5.9295281725108354E-002
20220210020000,424.73608205960318,3.3450670576746599,0.95315881912497658,0,1.6723403757809345,2,-1.1238848218336728,2,0.28268518556468936,0,280.87601170952098,4.4238091626409712,12.450669057985710,1.8480942094293757,1.4368418940879000,1.0627627113993905,0.88672962542393818,-34403.309698385172,-5.5227244606910085E-004,108.32752680393236,198.05726829023808,237.02396561127006,296.72587865836408,92.708320797960070,86.266666666666666,-7.0506666666666433,0.49382487965936833,-7.5130710402594332,7.3761636009172113E-002
20220210023000,424.59177449758755,3.3167104872172790,1.1514074107048842,0,17.037015741638857,1,0.72241690739547071,0,0.56492846583338008,0,279.84790733209849,4.8835956437801125,13.814310861427343,2.2194017557878678,1.5816281259813143,1.1189345441059628,0.97424731034783163,-4479.4976806507302,-4.2415470114139887E-003,112.08474982789667,204.92667028286760,245.24488532669795,307.01749461225825,92.728185849208941,86.406666666666666,-7.1793333333333180,0.48396563157645800,-7.6726758869373270,7.6488487093062718E-002
20220210030000,424.44532440354772,3.3116983766715604,0.99788605964916754,0,6.4624072186855255,0,0.19911249643468890,2,0.42815637591284955,0,281.57744369297501,4.9860657574810956,13.237080391543072,1.9933602273043391,1.4743570619801072,1.0807817964463380,0.90676475270167911,-9522.1771425020124,-1.9953420016934941E-003,108.80783947182333,198.93543303501124,238.07490452435817,298.04152946860228,92.737822674660961,86.920000000000002,-7.2743333333333453,0.46228752711363541,-7.7967413081757968,6.3719862369017916E-002
20220210033000,424.13436139731704,3.2445260535159592,1.3410837322092126,0,8.6834088474408535,1,-6.2705156368738848,1,5.8485226458541290E-002,2,286.49576391493542,4.7964317668057097,14.521044056076539,2.2412564239967057,1.7914310554156274,1.2469119417753995,1.0506916827825388,-11028.242182735168,-1.7228493612286375E-003,109.18588735352301,199.62662513494601,238.90208493505455,299.07706118599583,92.776460422309029,86.090000000000003,-7.4100000000000250,0.48649677624436777,-7.9405217340257082,7.8163199480724546E-002
20220210040000,423.97027920607974,3.1352139177550344,1.3242439747436248,0,18.509014811751360,0,4.6424313998930629,0,0.63438536656183986,0,292.37755075994323,4.2236161063610096,11.575844127498096,2.0486340551911302,1.4270804974019771,1.1451993323187379,1.0432523558061548,-5066.3801257224877,-3.7502120899960143E-003,116.21482435409082,212.47776373646076,254.28161561447084,318.33040859512414,92.821634105685760,85.040000000000006,-7.6879999999999882,0.51208400343873683,-8.1891591565167801,8.2738387546187453E-002
20220210043000,423.90317161028474,3.1081760884288250,0.78875612646520599,0,12.959919317133144,0,1.7797172035514126,0,0.38287454204822829,0,292.46004829908981,4.2980916876597686,11.796499983622743,1.9239515019027240,1.3729167609380066,0.99827634623658024,0.80475266800684486,-3322.0957103603441,-5.7192813382065657E-003,105.38631411082737,192.67979343556615,230.58850163646952,288.66944142184974,92.856573855685767,85.386666666666670,-7.8473333333333244,0.49407625288684587,-8.3411120072823906,6.1998904721658844E-002
20220210050000,423.97453076633133,3.1143256877868337,0.79441603171947628,0,3.2167305362958674,0,2.8971519104053978,1,0.46788147267354901,1,292.19768410790914,3.6827067713017101,10.467335091646286,1.7820309412022761,1.3086377051805209,0.88878684469597435,0.80736216243498593,-13517.904696001178,-1.4055432722218050E-003,115.95020457217440,211.99395437896678,253.70261938018456,317.60557401599033,92.884035328559023,86.256666666666661,-7.9486666666666679,0.46102130016869014,-8.4251859296162479,3.9247941606538640E-002
20220210053000,424.03319297107089,3.1021051603101681,0.71762584795422901,0,8.0537070948850058,0,1.1343280936047222,2,0.26155783555691059,0,286.86942072876002,4.1557588477790945,13.599056602053281,1.8511949430875467,1.3605310908271007,0.93799080413932601,0.76717833633062071,-4633.5767409960954,-4.1005040084683064E-003,106.61372065297812,194.92388405585638,233.27410496021517,292.03149809789562,92.915570594618060,86.129999999999995,-7.9759999999999991,0.46428377563229789,-8.4738244951035995,7.7559632549648858E-002
20220210060000,424.04834724675180,3.0242357557379589,0.81356949801905443,0,16.131024872698831,0,1.4973092173639735,0,0.35363831296818266,0,279.53789556658154,3.9560416634065181,10.093336408778015,1.6630229831482799,1.5354778787281886,1.0674994465266638,0.81619846221705494,-2786.4789685635487,-6.8186410930618458E-003,101.01768013480681,184.69253722305612,221.02979592379617,276.70307614686567,92.949680417968750,86.120000000000005,-8.2966666666666811,0.45317450488439648,-8.8245395660400163,0.13802184495038658
20220210063000,424.08157861752858,3.0195527013319041,1.1643134498767957,0,12.082236231898682,1,0.73976605755633351,2,0.52181506337390460,0,275.12636344059274,3.9519653756805297,11.257562600555872,1.8766092580794840,1.4102967773451258,1.0691342197969040,0.97567100017736419,-6356.3694819723833,-2.9891276858412413E-003,116.37825284239557,212.77656313592485,254.63920218119785,318.77806454390071,92.984850531569478,88.066666666666663,-8.5983333333333576,0.38055856768223750,-9.1432498633033106,7.7785129174227419E-002
20220210070000,423.98598275038364,2.9289982100603269,0.66289158665229153,0,-0.26396703755976592,2,-0.79617379998373716,2,0.32494765923391355,0,271.22634414723484,3.8270506449375019,9.7821270775852689,1.5252293298683233,1.2065846760132595,0.93433561824286759,0.73569354172796619,124763.23934190780,1.5228844730402833E-004,103.42133288379075,189.08718105392407,226.28906218164934,283.28705341446039,93.016769812779572,87.186666666666667,-8.8550000000000182,0.40050587359180950,-9.3821206834957707,6.7242680836501451E-002
20220210073000,423.92489948907485,2.8980159912153307,0.90358608319934464,0,-5.3526453172474371,2,-1.3218272900356649,2,0.33241747938992783,1,279.79692664519268,3.6290584389271530,10.631979065370249,1.7315203451313306,1.3115217526853857,0.97946913577725969,0.85841936439347777,9776.8447812492941,1.9433672544786134E-003,112.67352987352115,206.00314798803342,246.53315420353925,308.63025437451745,93.054586226578550,87.709999999999994,-9.0620000000000118,0.37797041811160742,-9.5972578035883771,8.4255499854896831E-002
20220210080000,423.77400791804308,2.8051236894267104,0.87652986609381967,0,5.1425538127917605,1,6.0461233665908116,1,0.54591994269236466,0,282.43355646151815,4.4082659859627604,10.911865640197645,1.8799911969396248,1.2672387667374392,0.99877803426190992,0.84497736294279557,-9707.8097579701916,-1.9571870971617305E-003,109.53572149814883,200.26623352519985,239.66753281992609,300.03531110650471,93.085605296531185,86.340000000000003,-9.2723333333333358,0.41322793908540745,-9.8227276775356813,6.3768362887619001E-002
20220210083000,423.74484364317465,2.7085378067627763,0.49335829771706613,0,2.5084387268227188,1,-0.17534361752907848,1,0.17769742206714262,0,282.94630525652678,3.6833572320975811,9.1561100586370365,1.3723931630873114,1.1770861843975675,0.90569586198569263,0.63367928654612271,-8394.8420540374082,-2.2632945179548859E-003,94.094578693663053,172.03489977868892,205.88183670860039,257.73962873167181,93.100556902777782,84.426666666666662,-9.4309999999999832,0.46527058493816387,-9.9710758912827941,7.0519305524486930E-002
20220210090000,423.83895655247863,2.6780388190376270,0.69601857901616715,0,-0.40574948500267982,2,4.1229026189455391,1,0.29613219123250101,0,285.31182486113613,3.4247967458491777,8.7230243011330959,1.4358167794914429,1.0036323259923812,0.80625598162733059,0.75235398298375489,86857.417966336245,2.1874930713878605E-004,118.47161796234869,216.60390221976081,259.21954954850787,324.51211592398181,93.098627706597227,84.909999999999997,-9.6476666666666802,0.44320742306457195,-10.185622894287064,6.3371728142783523E-002
20220210093000,423.92166721207514,2.6804717645530767,0.41481138875808549,0,-0.72536352776843016,0,1.8588974215230383,0,0.27376209990639988,0,279.91891885879261,3.0280538487051429,6.8170066536529861,1.1406836480984759,0.91449256341877772,0.67926612172236045,0.58061747336951930,22331.738449197786,8.5080702710283308E-004,110.44219187960825,201.92355048640775,241.65091793783384,302.51827391708525,93.101673258680563,86.136666666666670,-9.8176666666666392,0.40175825288594069,-10.336120606316399,4.8314388505678200E-002
20220210100000,424.03059073409554,2.6578599841049368,0.33927173261774235,0,-0.85693153580602133,2,-0.30622110961059995,2,0.24631826054783371,0,286.55733652028209,3.0019722404997973,7.9413211286782719,1.2462385482081106,0.98473783263139325,0.70043764902580719,0.52491765803870405,13968.833914121175,1.3601707999973277E-003,99.410500533839198,181.75410032884389,217.51323744867869,272.30076222602753,93.109738620008685,86.460000000000008,-9.9713333333333480,0.38765654298230945,-10.491750816345188,6.1492925616043345E-002
20220210103000,424.13686150000495,2.6063593413289268,0.57720641143002505,0,6.4083462840233913,1,0.20900206809476132,2,0.12629588287282631,1,286.54391796755942,3.0488955266262892,8.7438932165779324,1.3534666105468691,1.0036166811387077,0.77631373798920000,0.68432509782286244,-4139.6787069706816,-4.5897281757655414E-003,113.19703645267097,206.96028497857918,247.67860272502415,310.06421999955029,93.138749891059021,86.026666666666671,-10.151333333333355,0.39441016546590307,-10.678314256456133,8.0166296582528898E-002
20220210110000,424.13420403332265,2.4954927942101857,0.64932976003905263,0,14.773023871883026,0,6.4516340432821870,0,0.26248507514871000,0,285.11232606119859,4.0643318435221589,11.737044934659391,1.8212119873634187,1.2802161788268025,0.96712480516357546,0.72531045661694382,-2138.5145248334602,-8.8846719437080512E-003,99.469064352851589,181.86117366797063,217.64137688870102,272.46117759935635,93.166715602647571,84.239999999999995,-10.431333333333328,0.43508232438004824,-10.999600219302636,0.11466717022442668
20220210113000,424.15091478863019,2.4019270958564634,0.66391238519092821,0,0.72917250333743067,0,9.5158051674621564,1,0.56199307206820914,0,277.39770221555830,3.8314573578190192,10.032025429634992,1.5743850640760371,1.1121531715761068,0.82593263504928072,0.73295358616102824,-44711.188295158856,-4.2494956462736736E-004,113.80474701614934,208.07137370796090,249.00829215807298,311.72883338303927,93.171119963353263,83.073333333333338,-10.736333333333334,0.45610771831707925,-11.285281980319155,7.6057171249169997E-002
20220210120000,424.17183818343443,2.3320792901280658,0.44728562668985683,0,1.4444956248111880,2,1.2685550586977001,1,0.16071001469527990,1,268.34013441830365,2.9722549198148314,7.4292834269700734,1.2657972088493714,0.95379354256682813,0.72123288334635416,0.60135940607113270,-12465.298695741036,-1.5242314254765227E-003,108.26841300251616,197.94918940786928,236.89462279280633,296.56395679802466,93.172602693142352,81.989999999999995,-10.942000000000007,0.47742026027973311,-11.481071870591904,6.5655924276926000E-002
20220210123000,424.01684143584674,2.2619459552770755,0.44413214023332626,0,5.2801106968876264,1,7.5598026861121701,1,0.72315230611068781,1,262.00609573605527,3.2528059338012127,7.7383614707908155,1.3268215726391603,0.97600671762919944,0.74700572589284187,0.59894639138638028,-3369.3430316634763,-5.6390815127599289E-003,104.93155706309257,191.84835251498546,229.59347920750861,287.42379141444741,93.176601685763885,81.031999999999996,-11.177000000000021,0.49348113296724022,-11.723684922960047,8.1289402767758923E-002
20220210130000,423.77674150668213,2.2035520219236875,0.58489401277881126,0,2.3915943364627954,1,2.9510125413818735,0,0.51585098369407789,0,268.84523279627257,3.2123210659525321,8.6853250741912689,1.4034315950854963,1.0464099324943006,0.79832992290719773,0.68700676387127257,-11227.621083589116,-1.6922551855416107E-003,111.03957322465766,203.01575411016611,242.95800672277477,304.15459397103359,93.198348762152776,80.138333333333335,-11.362666666666655,0.50912378648802159,-11.907956801520413,6.4430661030845465E-002
20220210133000,423.76201429379603,2.2075479160139801,0.54969685432733784,0,1.4243304223484627,0,1.2399556223265151,0,0.26312517462448926,0,262.88228957146009,2.9947438560427950,8.2824630301079516,1.3013530115063732,1.0848431742453402,0.82162648516482950,0.66579015740270509,-17160.641852868375,-1.1071846940750750E-003,105.82426286088968,193.48050342726989,231.54674699235349,289.86905089788598,93.210403057667321,81.219999999999999,-11.505999999999972,0.47590865924829528,-12.042490399681355,4.0345333412716733E-002
20220210140000,423.68981730926799,2.1854337244719919,0.35126965391419335,0,7.3253823113441614,1,1.5847713558855259,0,0.31182437395398271,0,257.51761928114570,3.3817160612063835,8.1768227131820801,1.3710624230169366,1.0877890489682258,0.69344127467641292,0.53216745454306813,-1703.8294795132665,-1.1151350665342247E-002,101.31781104321188,185.24127224546424,221.68649159673842,277.52518120304597,93.204703935763888,80.861999999999995,-11.577333333333343,0.48221867192492485,-12.133529887729196,4.7247082654093907E-002
20220210143000,423.60232827703680,2.1753959514804961,0.46501434953403215,0,12.461784443942774,0,5.3451577007286186,0,0.27963494343967765,0,258.82159208359604,2.9967309330558014,8.6823747814331771,1.5759517423711182,1.0426884669711887,0.70259833774187130,0.61228988941873208,-1525.3337962012745,-1.2456289926387278E-002,112.16435826325308,205.07221989250732,245.41907103554769,307.23555445010999,93.193631274522573,80.706999999999994,-11.612333333333311,0.48476313963146994,-12.182298379686131,4.7896698696946252E-002
20220210150000,423.41856718729304,2.1967937276896543,0.45490864666488845,0,28.970220177813083,0,6.9140851440940949,1,0.40188144479692312,1,259.21161469946389,2.5111283899446635,7.2367831441561981,1.2110107650200121,0.92194992211942417,0.71149934066508513,0.60564131482405914,-634.93492395638089,-2.9924326546109586E-002,110.07474628971666,201.25174275732573,240.84693566821082,301.51178351952393,93.181375416759280,81.496666666666670,-11.613333333333344,0.46488443174669558,-12.197681397664610,8.9828306088547125E-002
20220210153000,423.19140917820147,2.1486557797439003,0.44129723503192653,0,39.921807679414620,0,2.3499899375619271,2,0.16150590441014293,1,258.87751397556997,3.0947258567518978,7.0542217168219121,1.2215853216673074,1.1754254100502084,0.77357696547204535,0.59650663715913743,-440.23362478665518,-4.3158902296951372E-002,101.70546751821306,185.95003191845782,222.53469590556543,278.58703234611255,93.186262450954871,79.625666666666660,-11.599333333333334,0.51246657474404766,-12.210162277221684,0.11360123712241102
20220210160000,423.12693885527716,2.1769823645197981,0.50504634908512946,1,59.346522491331442,0,6.0414474239083784,0,2.1089653961093059E-003,2,261.52552719815412,2.3850709702902959,6.3660668829136284,1.0686768392024422,1.1539156675755635,0.75166318281794831,0.63829560955207987,-362.84162194901501,-5.2364444569343811E-002,109.86358402195795,200.86567078511169,240.38490612162818,300.93337735362297,93.185344108506953,79.884000000000000,-11.476333333333343,0.51097638254033173,-12.110189453124974,0.13308649015686033
20220210163000,422.92085314255201,2.1322584856754521,0.43104596364900616,1,87.460492209850329,0,18.797320768026072,1,0.35963422358728159,0,226.02333269230132,2.0639296617857692,5.6588284682799177,1.0870824346134909,1.1688626921061884,0.72166421772583833,0.58986885296825398,-194.26392792660045,-9.7805085085991103E-002,106.55924474542419,194.82428472264820,233.15490999638962,291.88228014737501,93.153398067130269,77.715000000000003,-11.396000000000015,0.56972177617704911,-12.073753574625528,0.21620863057205014
20220210170000,422.95499631050524,2.0836765967911424,0.50355135669798667,0,166.61737822574619,0,24.491092935869418,1,-0.73937380596303559,1,210.34662114534663,1.9845618138656198,5.8660446332091247,1.3324235705318228,1.1340371149213833,0.73348560172225497,0.63779771999965207,-128.88226877215217,-0.14742136510329157,111.96647230979239,204.71042125709337,244.98609047361802,306.69351416591661,93.132292137152774,75.038333333333327,-11.248666666666679,0.64570995931332054,-11.953863232082824,0.32603879146393511
20220210173000,422.90840255128086,2.0892234201806388,0.46002945346276652,0,144.45450300160357,0,8.3842310667517399,0,-0.92338037978583198,2,198.20926140798113,2.2964930042714977,6.6049406851174952,1.1728467669917197,1.1161466758130876,0.81431224794362500,0.61038203348407449,-130.19987554509422,-0.14592947896804576,99.426813164239448,181.78392501986215,217.54892998649521,272.34544504794320,93.033315319914436,72.903333333333336,-10.866666666666674,0.72261728479580001,-11.646119204207025,0.31222075018781781
20220210180000,422.64103046877364,2.1235273153705450,0.70516463147211028,0,238.21789779955705,0,17.821437567424095,0,0.16811264991336244,1,147.02320423820157,3.1209763956118448,8.5128525018632359,1.5567144432486457,1.5269844931630709,0.91140503548732721,0.75719308575354749,-150.59330792297914,-0.12616762498980061,107.95706587181375,197.37994755387098,236.21338567996850,295.71112877128832,92.919103576171864,69.981999999999999,-10.161666666666690,0.84659314139266317,-11.151099497477162,0.45280077299482924
20220210183000,422.39094430083929,2.1548712090437041,0.66002368226416808,0,175.44949266260923,0,11.911224845473235,0,5.6188552599394266E-002,2,145.66913956850789,3.0699417374943501,8.6423142240126527,1.5784524077426403,1.1826163594958294,0.90763901812630632,0.73382054245850581,-186.01080082531467,-0.10214460620404062,105.63218568676353,193.12932509309462,231.12647621854376,289.34292176022041,92.846021401475682,67.159000000000006,-9.4639999999999986,0.97861810937058813,-10.359643490261533,0.47349427974915920
20220210190000,422.09278550625743,2.1811272726338742,0.81737595795680029,0,158.18152218355735,0,13.787506829347139,0,0.19095850646211118,2,155.85758068864922,3.2664926280929172,7.7328634894890200,1.6274738213118283,1.1792308408712031,0.96074260394417177,0.81777258156185695,-285.38845230355957,-6.6575924311717563E-002,110.07160425848201,201.24599812212932,240.84006080708102,301.50317700919015,92.777206101562513,65.082999999999998,-8.9189999999999827,1.0859457671435662,-9.7060724453396006,0.36488258908695981
20220210193000,422.23647241308475,2.2376299305790845,0.79493523685322809,0,138.99222457903488,0,11.694984872396725,0,0.54104595771618402,0,151.65653888402707,3.7443701939973653,10.291745108294093,1.6244569184956743,1.4565099768752734,1.0615622721278450,0.80764083446728896,-312.72284440964989,-6.0756674287315689E-002,100.61741015955900,183.96071604874214,220.15399288787827,275.60667467246532,92.715820233506932,63.731666666666669,-8.3313333333333617,1.1809483647637262,-9.1464505649142325,0.27697233485585016
20220210200000,422.15972348155782,2.2916432574012222,0.90480177519409666,0,148.52625292443923,0,16.160082450877635,0,0.33893194697634477,2,157.76033597229011,2.8141456561693174,8.3564508918559461,1.6261552570400266,1.2824129836323748,0.97004300246797015,0.86276092671966409,-356.56603849626276,-5.3286061903506668E-002,114.00777886136608,208.44258067470292,249.45253208968100,312.28496906198455,92.647358168185775,62.813333333333333,-7.8473333333333244,1.2572798077567640,-8.5879310523139338,0.33350659598184512
20220210203000,421.69750545078256,2.2861332858994561,0.93325721689425878,0,113.46468565210048,0,11.489788925784568,0,0.57541136733059162,0,148.38418205631012,3.1375380912994260,9.8740204075540543,1.7816420855899466,1.3635464970942064,0.96636439461431478,0.87730165238101920,-490.33453673979773,-3.8749055137600054E-002,115.89409849339822,211.89137457284787,253.57985755150830,317.45189077393616,92.537944852213542,60.959666666666664,-7.5070000000000050,1.3552169035030335,-8.2142869313557867,0.28873331575022820
20220210210000,421.55128523294115,2.3033741222969408,0.99061661575214044,0,91.787952377792678,0,18.880417811682822,0,1.2317424861090336,0,149.15306259392014,3.3131309638318349,9.7204484625621017,1.8648338506018247,1.3436720446541386,1.0569693550231636,0.90467379342266296,-664.34195743848136,-2.8599729081177919E-002,110.56014280694255,202.13920240009369,241.90899820024865,302.84135978071055,92.476069843619740,59.976666666666667,-7.2080000000000268,1.4218089956127418,-7.8069625638265734,0.16970977153760516
20220210213000,421.54828226123408,2.3231202791610670,0.76896693939265803,0,49.648118200743063,0,8.6607372833576335,0,0.51605155544554770,1,151.18505541283614,3.0762801082812992,8.4900064462537337,1.5056328173328795,1.2289200109013245,0.98224853089884656,0.79745658076454484,-841.02479085520201,-2.2591486251766390E-002,105.98476141187125,193.77394596685158,231.89792276596245,290.30868129441109,92.442407101704447,59.712000000000003,-7.0446666666666715,1.4493507894141835,-7.6166084255212354,0.11910805145936851
20220210220000,421.74765318993815,2.3485035173055167,0.64036130963548388,0,23.913706262551830,0,7.6217121620618284,0,0.36657308601620714,0,149.59645092395277,3.7702436643567552,9.9348211477708066,1.6621545206531456,1.4086745380643886,1.0567355631506530,0.72792271526491426,-1327.3452425175558,-1.4314286435353462E-002,92.928742155322908,169.90337876211004,203.33095044981928,254.54622183485299,92.377730142361102,60.519333333333336,-7.0869999999999891,1.4156807387105326,-7.6754079454210000,6.6592366986931995E-002
20220210223000,421.72930879665660,2.3865127805795079,1.0200471139209208,0,25.141369199321879,0,11.003277331396911,0,0.97045117861399743,0,144.18530754395744,3.7743818504408146,10.188074769324635,1.7749080943221009,1.3324627808376723,1.1546210310747873,0.91934292602552348,-2542.1029507527819,-7.4741268815936871E-003,104.34829558769653,190.78196451625493,228.31728513232335,285.82614787101352,92.309599955295127,60.695999999999998,-6.9259999999999877,1.4269336929751546,-7.5287062174479047,6.7512530599513398E-002